カタログに戻る

TELECOM 2B

運用中通信GEO
NORAD 21939·PAYLOAD·🇫🇷 France

打ち上げ Apr 15, 1992 から Guiana Space Centre

Loading…

TLE

最新Source: Space-Track

元期: Sep 14, 2026, 13:16 UTC

1 21939U 92021A   26257.55330102 -.00000335  00000-0  00000-0 0  9991
2 21939  14.5807   3.0402 0014701 120.3629 214.5155  0.99513928118274

AllMySatでTELECOM 2Bをリアルタイム追跡

Download on the App Store